[[{"header":{"parameterUnit":"m.s-1","parameterCategory":1,"la1":30.2991,"la2":30.254,"lo1":-89.0895,"lo2":-89.0444,"dy":0.0017,"dx":0.0017,"nx":28,"ny":28,"refTime":"2023-04-29T21:00:00:Z","depth":0,"parameterNumber":2,"parameterNumberName":"U-component_of_WINDS"},"data":[0,0,0,0,0,0,0,0,0,0,0,0,0,0,0,0,0,0,0,0,0,0,0,0,0,0,0,0,0,0,0,0,0,0,0,0,0,0,0,0,0,0,0,0,0,0,0,0,0,0,0,0,0,0,0,0,0,0,5.1712,5.1713,0,5.1822,5.1823,5.1825,5.1811,5.1809,5.1807,5.1806,5.1922,5.1927,5.1931,0,0,0,0,0,0,0,0,0,0,0,0,0,5.1495,5.1499,5.1712,5.1713,5.1715,5.1822,5.1823,5.1825,5.1811,5.1809,5.1807,5.1805,5.192,5.1926,5.1932,0,0,0,0,0,0,0,0,0,0,0,0,0,5.1596,5.1501,5.1712,5.1721,5.1723,5.1821,5.1823,5.1825,5.1812,5.1809,5.1806,5.1804,5.1919,5.1925,5.1933,5.2031,0,0,5.1954,5.1958,0,0,0,0,0,0,0,0,5.159,5.1604,5.1718,5.172,5.1722,5.18,5.179,5.1894,5.1812,5.1778,5.1806,5.1802,5.1884,5.1894,5.192,5.2036,5.2041,5.1955,5.1959,5.1962,5.1964,0,0,0,0,0,0,0,5.1583,5.1599,5.1756,5.172,5.1722,5.1721,5.1732,5.1809,5.1845,5.1781,5.178,5.1793,5.1885,5.1913,5.1923,5.2043,5.1955,5.1961,5.1966,5.1968,5.2249,5.2252,0,0,0,0,0,0,5.1573,5.1593,5.1752,5.1759,5.1648,5.1727,5.174,5.1778,5.1844,5.1851,5.1795,5.1792,5.1903,5.1915,5.1927,5.2049,5.1962,5.1969,5.1973,5.2246,5.225,5.2253,0,0,0,0,0,0,5.1569,5.1588,5.1748,5.1676,5.1696,5.1734,5.1777,5.1781,5.181,5.1855,5.1861,5.1818,5.1901,5.1917,5.2006,5.2053,5.1972,5.1979,5.2242,5.2247,5.2251,5.2292,0,0,0,0,0,0,5.1562,5.1586,5.1622,5.1677,5.17,5.1823,5.1779,5.1786,5.1822,5.1819,5.1878,5.1885,5.19,5.1995,5.2013,5.2061,5.1984,5.2238,5.2244,5.225,5.2287,5.2297,5.2307,0,0,0,0,0,5.1555,5.1629,5.1624,5.1643,5.1746,5.1825,5.1839,5.1854,5.1826,5.1864,5.1893,5.1883,5.2044,5.2004,5.2024,5.2075,5.2235,5.2242,5.2249,5.2282,5.2295,5.2306,0,0,0,0,0,0,5.1579,5.1636,5.1631,5.1725,5.1771,5.1823,5.1871,5.1867,5.1922,5.1917,5.1934,5.1947,5.2037,5.2065,5.2019,5.2176,5.2136,5.2148,5.2154,5.2167,5.2177,5.2169,5.199,0,0,0,0,0,5.1596,5.1654,5.1701,5.178,5.1803,5.1833,5.1868,5.1876,5.1924,5.1943,5.1979,5.2027,5.2089,5.2129,5.2189,5.229,5.2305,5.2336,5.2346,5.2354,5.2364,5.2423,5.2438,5.2276,5.2276,5.2276,0,0,5.163,5.1668,5.1704,5.1786,5.1822,5.1884,5.1849,5.1916,5.1963,5.1954,5.204,5.2068,5.2124,5.222,5.2264,5.2246,5.2412,5.2363,5.2369,5.2375,5.2432,5.2447,5.2461,5.2281,5.228,5.228,0,0,5.1725,5.1759,5.1829,5.1867,5.1922,5.1942,5.1959,5.2013,5.2031,5.2117,5.2113,5.217,5.2275,5.2316,5.235,5.2464,5.2458,5.2483,5.2536,5.2594,5.2606,5.2618,5.2661,5.2676,5.2492,5.2492,5.2493,0,5.1761,5.1854,5.1866,5.1935,5.1972,5.1966,5.2039,5.2075,5.2147,5.2174,5.2152,5.2286,5.2323,5.243,5.2458,5.2485,5.2508,5.2476,5.2603,5.2615,5.2626,5.2667,5.2683,5.2495,5.2495,5.2495,5.2494,0,5.1897,5.1961,5.2012,5.2082,5.2125,5.2195,5.2221,5.2263,5.2267,5.229,5.2381,5.2425,5.2494,5.252,5.2525,5.263,5.2617,5.2599,5.256,5.2644,5.2683,5.2699,5.2499,5.2498,5.2497,5.2497,0,0,5.201,5.2087,5.2106,5.2139,5.22,5.2251,5.2323,5.239,5.2427,5.2478,5.254,5.263,5.2615,5.2654,5.2664,5.2714,5.2805,5.2691,5.2692,5.2713,5.2927,5.2942,5.296,5.2801,5.2804,5.2807,5.2923,0,5.2113,5.2238,5.2253,5.2365,5.2427,5.2423,5.2486,5.2532,5.2556,5.2613,5.264,5.2705,5.2678,5.2703,5.2752,5.2783,5.2849,5.2775,5.2862,5.2865,5.285,5.298,5.2995,5.3103,5.2939,5.2941,5.2943,0,5.225,5.2304,5.2423,5.2478,5.2505,5.256,5.2625,5.2679,5.2732,5.2746,5.2791,5.2795,5.2872,5.2829,5.2937,5.2886,5.2923,5.2944,5.2949,5.2959,5.291,5.2996,5.3137,5.3154,5.2967,5.2965,5.2963,0,5.2324,5.2427,5.2512,5.254,5.2606,5.2646,5.2676,5.2726,5.2766,5.2823,5.285,5.2916,5.2952,5.3004,5.3026,5.2992,5.3134,5.3092,5.315,5.315,5.3181,5.318,5.3333,5.3202,5.3201,5.3201,5.3201,0,5.2439,5.2512,5.2547,5.2599,5.2682,5.2699,5.2782,5.281,5.2855,5.2915,5.2916,5.2972,5.2997,5.3059,5.3077,5.3165,5.3181,5.3197,5.3201,5.3198,5.3196,5.3223,5.3218,5.3205,5.3204,5.3203,5.3203,0,5.2536,5.2562,5.2655,5.271,5.2726,5.2785,5.2833,5.2886,5.2909,5.2985,5.3004,5.3043,5.3115,5.3142,5.323,5.3243,5.3346,5.3343,5.3328,5.333,5.3387,5.3383,5.3565,5.3592,5.3441,5.3442,5.3443,0,5.2609,5.2665,5.2727,5.2767,5.2798,5.2861,5.2903,5.2923,5.2967,5.3033,5.3078,5.315,5.3208,5.3325,5.3362,5.343,5.3431,5.349,5.3441,5.3437,5.3435,5.3432,5.3439,5.35,5.3501,5.3502,5.3503,0,5.2736,5.2746,5.2805,5.287,5.292,5.2972,5.3022,5.3055,5.3084,5.3133,5.3207,5.3252,5.3343,5.3415,5.3486,5.3519,5.3518,5.3518,5.3536,5.3534,5.3524,5.3534,5.3355,5.3515,5.3513,5.3513,5.3512,5.3512,5.2825,5.2876,5.2928,5.2995,5.3035,5.3083,5.3136,5.3167,5.3228,5.3303,5.3311,5.3391,5.3446,5.3541,5.3577,5.3641,5.3626,5.3651,5.3657,5.3664,5.3669,5.3512,5.3654,5.3654,5.3654,5.3653,5.3653,0,5.2955,5.2988,5.3049,5.3121,5.3174,5.3166,5.3223,5.3269,5.3338,5.3389,5.3447,5.3533,5.3604,5.3647,5.3719,5.3763,5.3764,5.3781,5.378,5.3788,5.3678,5.3656,5.3779,5.3779,5.3779,5.3779,5.3779,5.3779,5.3028,5.3116,5.3133,5.3241,5.3274,5.3352,5.3385,5.3431,5.3471,5.3567,5.3626,5.3653,5.3702,5.3778,5.3843,5.3855,5.3882,5.3901,5.3912,5.3808,5.3795,5.3783,5.3763,5.3906,5.3907,5.4017,5.4018,5.4019]},{"header":{"parameterUnit":"m.s-1","parameterCategory":1,"la1":30.2991,"la2":30.254,"lo1":-89.0895,"lo2":-89.0444,"dy":0.0017,"dx":0.0017,"nx":28,"ny":28,"refTime":"2023-04-29T21:00:00:Z","depth":0,"parameterNumber":3,"parameterNumberName":"V-component_of_WINDS"},"data":[0,0,0,0,0,0,0,0,0,0,0,0,0,0,0,0,0,0,0,0,0,0,0,0,0,0,0,0,0,0,0,0,0,0,0,0,0,0,0,0,0,0,0,0,0,0,0,0,0,0,0,0,0,0,0,0,0,0,-1.2793,-1.2793,0,-1.2777,-1.2777,-1.2777,-1.2804,-1.2805,-1.2806,-1.2807,-1.2787,-1.2786,-1.2784,0,0,0,0,0,0,0,0,0,0,0,0,0,-1.2845,-1.2844,-1.2793,-1.2793,-1.2793,-1.2777,-1.2777,-1.2777,-1.2804,-1.2805,-1.2806,-1.2807,-1.2787,-1.2786,-1.2784,0,0,0,0,0,0,0,0,0,0,0,0,0,-1.2825,-1.2844,-1.2793,-1.2804,-1.2805,-1.2777,-1.2777,-1.2777,-1.2804,-1.2805,-1.2807,-1.2808,-1.2788,-1.2786,-1.2784,-1.2743,0,0,-1.2777,-1.2777,0,0,0,0,0,0,0,0,-1.2826,-1.2823,-1.2803,-1.2804,-1.2805,-1.2794,-1.2788,-1.2765,-1.2803,-1.2804,-1.2807,-1.2809,-1.2788,-1.2786,-1.278,-1.2742,-1.2741,-1.2777,-1.2776,-1.2775,-1.2774,0,0,0,0,0,0,0,-1.2828,-1.2824,-1.2787,-1.2803,-1.2804,-1.281,-1.2809,-1.2784,-1.2788,-1.2804,-1.2806,-1.2804,-1.2789,-1.2782,-1.278,-1.2741,-1.2777,-1.2775,-1.2774,-1.2773,-1.2672,-1.267,0,0,0,0,0,0,-1.2828,-1.2825,-1.2787,-1.2786,-1.2819,-1.2808,-1.2806,-1.2796,-1.2789,-1.2789,-1.2803,-1.2806,-1.2785,-1.2782,-1.2779,-1.2733,-1.2775,-1.2773,-1.2772,-1.2673,-1.2671,-1.267,0,0,0,0,0,0,-1.2829,-1.2824,-1.2788,-1.2806,-1.2802,-1.2805,-1.2794,-1.2795,-1.2788,-1.2788,-1.2788,-1.2795,-1.2786,-1.2782,-1.2753,-1.2732,-1.2772,-1.277,-1.2675,-1.2673,-1.2671,-1.2638,0,0,0,0,0,0,-1.283,-1.2825,-1.2809,-1.2806,-1.2801,-1.2762,-1.2792,-1.2794,-1.2785,-1.2788,-1.2781,-1.2781,-1.2786,-1.2756,-1.2751,-1.273,-1.2769,-1.2677,-1.2674,-1.2671,-1.2641,-1.2635,-1.263,0,0,0,0,0,-1.2832,-1.2799,-1.2808,-1.2803,-1.2782,-1.2761,-1.2758,-1.2766,-1.2783,-1.2768,-1.2768,-1.2781,-1.2735,-1.2752,-1.2747,-1.2725,-1.2678,-1.2675,-1.2672,-1.2643,-1.2636,-1.263,0,0,0,0,0,0,-1.2798,-1.2799,-1.2809,-1.2774,-1.2767,-1.2765,-1.2746,-1.2758,-1.2745,-1.2748,-1.2758,-1.2756,-1.2726,-1.2722,-1.2741,-1.2687,-1.2709,-1.2705,-1.269,-1.2683,-1.2678,-1.2679,-1.2767,0,0,0,0,0,-1.2786,-1.277,-1.2771,-1.274,-1.2737,-1.2742,-1.2733,-1.274,-1.2733,-1.273,-1.2728,-1.272,-1.2705,-1.2694,-1.2679,-1.2641,-1.2641,-1.2624,-1.2618,-1.2614,-1.261,-1.2592,-1.2585,-1.2659,-1.2659,-1.2659,0,0,-1.2762,-1.2761,-1.2749,-1.2733,-1.2729,-1.2712,-1.2739,-1.2719,-1.2706,-1.2727,-1.27,-1.2698,-1.269,-1.2657,-1.2643,-1.2654,-1.2589,-1.2609,-1.2606,-1.2604,-1.2588,-1.2581,-1.2574,-1.2657,-1.2657,-1.2658,0,0,-1.2709,-1.2706,-1.2681,-1.2677,-1.2672,-1.2676,-1.267,-1.2667,-1.2667,-1.2641,-1.2657,-1.2642,-1.2613,-1.2608,-1.2601,-1.255,-1.2562,-1.2545,-1.2516,-1.2499,-1.2493,-1.2488,-1.2471,-1.2465,-1.2541,-1.2541,-1.2541,0,-1.2679,-1.2654,-1.2666,-1.2646,-1.2639,-1.266,-1.2635,-1.263,-1.2619,-1.2614,-1.2627,-1.2594,-1.259,-1.2557,-1.2545,-1.2539,-1.2533,-1.2546,-1.2493,-1.2488,-1.2483,-1.2467,-1.2461,-1.2539,-1.2539,-1.2539,-1.254,0,-1.2619,-1.2602,-1.2582,-1.2574,-1.2565,-1.2542,-1.2551,-1.254,-1.2549,-1.2552,-1.2526,-1.2522,-1.2508,-1.2501,-1.2508,-1.247,-1.2477,-1.2491,-1.2514,-1.2474,-1.2459,-1.2453,-1.2536,-1.2537,-1.2537,-1.2538,0,0,-1.2542,-1.2543,-1.2535,-1.2533,-1.253,-1.2516,-1.2496,-1.2484,-1.2475,-1.2468,-1.2451,-1.2428,-1.2443,-1.2435,-1.2442,-1.2427,-1.2389,-1.2443,-1.2443,-1.2435,-1.2349,-1.2339,-1.2331,-1.2398,-1.2396,-1.2396,-1.235,0,-1.249,-1.2456,-1.2467,-1.2432,-1.2417,-1.2438,-1.242,-1.2416,-1.2419,-1.2407,-1.2409,-1.2394,-1.2413,-1.2409,-1.2395,-1.2397,-1.2372,-1.24,-1.2382,-1.2381,-1.2384,-1.2323,-1.2312,-1.2269,-1.2344,-1.2343,-1.2342,0,-1.2425,-1.2418,-1.2382,-1.2384,-1.2379,-1.2362,-1.2354,-1.2342,-1.2338,-1.2342,-1.2335,-1.2347,-1.2327,-1.235,-1.2324,-1.2342,-1.2336,-1.2336,-1.2335,-1.2333,-1.236,-1.2321,-1.2255,-1.2249,-1.2333,-1.2334,-1.2335,0,-1.2375,-1.2356,-1.2332,-1.233,-1.2331,-1.2319,-1.2319,-1.2317,-1.2311,-1.2303,-1.2299,-1.2288,-1.2283,-1.2275,-1.2283,-1.2299,-1.2256,-1.2279,-1.2258,-1.2258,-1.2248,-1.2248,-1.2181,-1.2243,-1.2243,-1.2243,-1.2243,0,-1.2316,-1.2294,-1.231,-1.2296,-1.2272,-1.2285,-1.2261,-1.2263,-1.2262,-1.2248,-1.2265,-1.2252,-1.2264,-1.2252,-1.2258,-1.2236,-1.2233,-1.2236,-1.2238,-1.2235,-1.2234,-1.223,-1.2234,-1.2241,-1.2242,-1.2242,-1.2242,0,-1.2255,-1.2265,-1.2241,-1.2246,-1.2247,-1.2229,-1.2233,-1.222,-1.2225,-1.2208,-1.2205,-1.2213,-1.22,-1.2208,-1.2194,-1.2199,-1.2171,-1.2176,-1.2172,-1.2174,-1.2153,-1.2155,-1.2081,-1.2072,-1.2139,-1.2138,-1.2138,0,-1.2218,-1.2201,-1.2205,-1.2198,-1.2198,-1.2186,-1.218,-1.2194,-1.2187,-1.2184,-1.2171,-1.216,-1.2153,-1.2131,-1.2136,-1.2126,-1.2132,-1.2107,-1.2131,-1.2129,-1.2133,-1.2135,-1.2134,-1.2102,-1.2101,-1.21,-1.21,0,-1.2151,-1.2157,-1.2149,-1.2143,-1.2136,-1.2131,-1.2127,-1.2121,-1.2135,-1.2126,-1.2115,-1.2109,-1.2097,-1.2086,-1.2079,-1.2078,-1.2092,-1.2093,-1.2088,-1.2084,-1.2083,-1.2085,-1.216,-1.2094,-1.2095,-1.2095,-1.2095,-1.2096,-1.2101,-1.2088,-1.209,-1.2081,-1.208,-1.2077,-1.2067,-1.2072,-1.2063,-1.2055,-1.2064,-1.205,-1.2049,-1.2041,-1.204,-1.2029,-1.2039,-1.2031,-1.203,-1.2028,-1.2026,-1.2085,-1.2028,-1.2028,-1.2028,-1.2028,-1.2028,0,-1.2036,-1.2039,-1.203,-1.2026,-1.2019,-1.2035,-1.2032,-1.2025,-1.2014,-1.2013,-1.2006,-1.1993,-1.1984,-1.1989,-1.1981,-1.1972,-1.1978,-1.1969,-1.197,-1.1971,-1.2016,-1.2022,-1.1965,-1.1965,-1.1965,-1.1965,-1.1965,-1.1965,-1.2001,-1.1982,-1.1989,-1.197,-1.1973,-1.1961,-1.1959,-1.1957,-1.1956,-1.1942,-1.1936,-1.1939,-1.1941,-1.1934,-1.1927,-1.1928,-1.1925,-1.1914,-1.1918,-1.1961,-1.1967,-1.1973,-1.1979,-1.1913,-1.1913,-1.1874,-1.1874,-1.1873]}]]